TimeCDT,TemperatureF,Dew PointF,Humidity,Sea Level PressureIn,VisibilityMPH,Wind Direction,Wind SpeedMPH,Gust SpeedMPH,PrecipitationIn,Events,Conditions,WindDirDegrees,DateUTC
12:53 AM,52.0,48.0,86,30.26,10.0,East,10.4,-,0.00,,Overcast,80,2013-05-26 05:53:00
1:53 AM,52.0,48.0,86,30.25,10.0,ENE,10.4,-,0.00,,Overcast,70,2013-05-26 06:53:00
2:53 AM,52.0,48.9,89,30.23,9.0,East,9.2,-,N/A,,Overcast,90,2013-05-26 07:53:00
3:53 AM,52.0,46.0,80,30.24,10.0,East,6.9,-,N/A,,Overcast,90,2013-05-26 08:53:00
4:53 AM,52.0,46.9,83,30.24,10.0,East,8.1,-,N/A,,Overcast,90,2013-05-26 09:53:00
5:53 AM,52.0,46.9,83,30.25,10.0,East,8.1,-,N/A,,Overcast,100,2013-05-26 10:53:00
6:53 AM,52.0,46.9,83,30.27,10.0,East,10.4,-,N/A,,Overcast,90,2013-05-26 11:53:00
7:53 AM,53.1,48.0,83,30.28,10.0,ESE,9.2,-,N/A,,Overcast,110,2013-05-26 12:53:00
8:53 AM,55.0,48.9,80,30.26,10.0,ESE,13.8,-,0.01,,Mostly Cloudy,110,2013-05-26 13:53:00
9:53 AM,57.0,50.0,77,30.28,10.0,SSE,13.8,-,N/A,,Overcast,150,2013-05-26 14:53:00
10:53 AM,57.9,52.0,81,30.27,9.0,SE,10.4,-,0.00,Rain,Light Rain,140,2013-05-26 15:53:00
11:53 AM,59.0,53.1,81,30.26,10.0,SE,8.1,-,0.01,,Scattered Clouds,140,2013-05-26 16:53:00
12:53 PM,57.9,53.1,84,30.25,6.0,ESE,12.7,-,0.01,Rain,Light Rain,120,2013-05-26 17:53:00
1:53 PM,60.1,54.0,80,30.20,10.0,SE,15.0,-,0.03,Rain,Light Rain,130,2013-05-26 18:53:00
2:53 PM,64.0,55.0,73,30.19,10.0,SE,17.3,21.9,0.00,,Partly Cloudy,140,2013-05-26 19:53:00
3:41 PM,64.4,57.2,77,30.18,10.0,SE,13.8,-,N/A,,Mostly Cloudy,140,2013-05-26 20:41:00
3:53 PM,64.9,55.9,73,30.19,10.0,SE,13.8,-,N/A,,Scattered Clouds,130,2013-05-26 20:53:00
4:53 PM,64.0,55.9,75,30.17,10.0,SE,11.5,-,N/A,,Mostly Cloudy,130,2013-05-26 21:53:00
5:53 PM,64.0,55.9,75,30.16,10.0,ESE,12.7,-,0.00,,Mostly Cloudy,120,2013-05-26 22:53:00
6:53 PM,63.0,55.9,78,30.12,10.0,ESE,15.0,-,N/A,,Mostly Cloudy,120,2013-05-26 23:53:00
7:53 PM,61.0,55.9,83,30.11,10.0,ESE,13.8,-,N/A,,Clear,110,2013-05-27 00:53:00
8:53 PM,61.0,55.9,83,30.14,10.0,NNE,16.1,-,N/A,,Overcast,30,2013-05-27 01:53:00
9:05 PM,62.6,55.4,77,30.13,10.0,ENE,12.7,-,N/A,,Overcast,70,2013-05-27 02:05:00
9:53 PM,61.0,54.0,78,30.12,10.0,East,16.1,-,N/A,,Mostly Cloudy,90,2013-05-27 02:53:00
10:53 PM,60.8,53.6,77,30.09,10.0,East,15.0,-,N/A,,Mostly Cloudy,100,2013-05-27 03:53:00
11:53 PM,60.1,54.0,80,30.06,10.0,ESE,17.3,-,0.00,,Partly Cloudy,120,2013-05-27 04:53:00